Flag for Kiribati Weather past 2 weeks in Kiritimati, Christmas Island, Kiribati

Now
82 °F

Passing clouds.


Feels Like: 89 °F
Forecast: 80 / 85 °F
Wind: 5 mph from South

Location: Christmas / Cassidy

Current Time: Jul 6, 2015 at 9:39:42 PM

Latest Report: Jul 6, 2015 at 9:00 PM


Visibility: N/A

Pressure: 29.83 "Hg

Humidity: 79%

Dew point: 75 °F

Location of KiritimatiLocation

Historic Weather in Kiritimati — Graph

°F

Kiritimati temperature yesterday

Maximum temperature yesterday: 90 °F (at 1:00 PM)
Minimum temperature yesterday: 77 °F (at 3:00 AM)
Average temperature yesterday: 83 °F

Past Weeks' High & Low Weather Summary

 TemperatureHumidityPressure
High90 °F (Jun 29, 12:00 PM)100% (Jun 23, 9:00 PM)29.86 "Hg (Jun 23, 9:00 PM)
Low77 °F (Jun 24, 2:00 AM)59% (Jul 6, 1:00 PM)29.68 "Hg (Jun 22, 5:00 PM)
Average83 °F83%29.77 "Hg
* Reported Jun 21 8:00 PM — Jul 6 8:00 PM, Kiritimati, Weather by CustomWeather, © 2015

Note: Actual official high and low records may vary slightly from our data, if they occured in-between our weather recording intervals... More about our weather records

Advertising

Kiritimati weather history for previous 24 hours

 ConditionsComfort  
Time TempWeatherWind HumidityBarometerVisibility
8:00 PM
Mon, Jul 6
82 °FPassing clouds.5 mph79%29.83 "HgN/A
7:00 PM82 °FPassing clouds.2 mph79%29.80 "HgN/A
6:00 PM84 °FPassing clouds.7 mph74%29.77 "HgN/A
5:00 PM86 °FPassing clouds.12 mph70%29.77 "HgN/A
4:00 PM88 °FScattered showers. Scattered clouds.7 mph62%29.77 "HgN/A
3:00 PM88 °FScattered showers. Scattered clouds.9 mph66%29.80 "HgN/A
2:00 PM88 °FScattered clouds.14 mph66%29.80 "HgN/A
1:00 PM88 °FScattered showers. Scattered clouds.12 mph59%29.80 "HgN/A
12:00 PM86 °FScattered showers. Scattered clouds.9 mph66%29.83 "HgN/A
11:00 AM86 °FScattered clouds.2 mph94%29.86 "HgN/A
10:00 AM86 °FScattered clouds.5 mph66%29.86 "HgN/A
8:00 AM81 °FScattered clouds.No wind84%29.83 "HgN/A
7:00 AM77 °FScattered clouds.No wind94%29.83 "HgN/A
6:00 AM77 °FScattered clouds.No wind94%29.83 "HgN/A
5:00 AM77 °FRain. Cloudy.N/A94%29.80 "HgN/A
4:00 AM79 °FPassing clouds.No wind89%29.80 "HgN/A
2:00 AM81 °FPassing clouds.2 mph84%29.83 "HgN/A
1:00 AM81 °FPassing clouds.5 mph84%29.86 "HgN/A
12:00 AM81 °FPassing clouds.No wind89%29.86 "HgN/A
11:00 PM
Sun, Jul 5
81 °FPassing clouds.2 mph89%29.86 "HgN/A
10:00 PM77 °FPartly cloudy.2 mph100%29.86 "HgN/A
Weather by CustomWeather, © 2015

See weather overviewHow to use our weather pages